Location: Broekland
(52.3610°N, 6.2005°E)
Time: 15:05:43
(UTC+00:00)

ACS3 Solar Sail - Pass Details

Date: 18 January 2026
Orbit: 900 x 968 km, 97.2° (Epoch: 10 February)

Event Time Altitude Azimuth Distance (km) Brightness Sun altitude
Rises 03:33:25 0° 8° (N) 3,660 5.0 -36.1°
Reaches altitude 10° 03:36:10 10° 358° (N) 2,700 4.2 -35.7°
Enters shadow 03:36:18 11° 358° (N) 2,658 4.2 -35.7°
